TimeHST,TemperatureF,Dew PointF,Humidity,Sea Level PressureIn,VisibilityMPH,Wind Direction,Wind SpeedMPH,Gust SpeedMPH,PrecipitationIn,Events,Conditions,WindDirDegrees,DateUTC
12:53 AM,66.0,63.0,90,30.06,10.0,Calm,Calm,-,N/A,,Clear,0,2014-02-11 10:53:00
1:53 AM,66.0,63.0,90,30.06,10.0,Calm,Calm,-,N/A,,Clear,0,2014-02-11 11:53:00
2:53 AM,64.9,63.0,93,30.05,10.0,Calm,Calm,-,N/A,,Clear,0,2014-02-11 12:53:00
3:12 AM,64.4,62.6,94,30.03,10.0,NE,3.5,-,N/A,,Scattered Clouds,40,2014-02-11 13:12:00
3:53 AM,64.9,62.1,90,30.04,10.0,Calm,Calm,-,N/A,,Clear,0,2014-02-11 13:53:00
4:03 AM,64.4,62.6,94,30.02,10.0,NE,3.5,-,N/A,,Partly Cloudy,40,2014-02-11 14:03:00
4:53 AM,64.9,62.1,90,30.03,10.0,NE,3.5,-,N/A,,Unknown,50,2014-02-11 14:53:00
5:53 AM,64.0,62.1,93,30.04,10.0,Calm,Calm,-,0.01,,Unknown,0,2014-02-11 15:53:00
6:43 AM,64.4,62.6,94,30.03,10.0,NE,3.5,-,N/A,,Scattered Clouds,40,2014-02-11 16:43:00
6:53 AM,64.0,62.1,93,30.05,10.0,NE,3.5,-,N/A,,Partly Cloudy,40,2014-02-11 16:53:00
7:53 AM,68.0,63.0,84,30.06,10.0,NE,3.5,-,N/A,,Clear,50,2014-02-11 17:53:00
8:01 AM,69.8,62.6,78,30.04,10.0,Calm,Calm,-,N/A,,Partly Cloudy,0,2014-02-11 18:01:00
8:53 AM,75.9,64.9,69,30.06,10.0,Variable,3.5,-,N/A,,Clear,0,2014-02-11 18:53:00
9:53 AM,80.1,64.9,60,30.08,10.0,Calm,Calm,-,N/A,,Clear,0,2014-02-11 19:53:00
10:53 AM,79.0,66.0,64,30.07,10.0,SSE,8.1,-,N/A,,Clear,160,2014-02-11 20:53:00
11:53 AM,79.0,66.9,66,30.05,10.0,SSE,9.2,-,N/A,,Clear,160,2014-02-11 21:53:00
12:53 PM,80.1,66.9,64,30.02,10.0,South,6.9,-,N/A,,Clear,190,2014-02-11 22:53:00
1:53 PM,80.1,66.9,64,29.99,10.0,South,6.9,-,N/A,,Clear,190,2014-02-11 23:53:00
2:53 PM,81.0,66.9,62,29.97,10.0,South,6.9,-,N/A,,Clear,180,2014-02-12 00:53:00
3:53 PM,80.1,66.9,64,29.97,10.0,SSW,5.8,-,N/A,,Clear,210,2014-02-12 01:53:00
4:53 PM,79.0,66.0,64,29.98,10.0,West,10.4,-,N/A,,Partly Cloudy,280,2014-02-12 02:53:00
5:53 PM,77.0,66.0,69,29.99,10.0,WNW,8.1,-,N/A,,Partly Cloudy,290,2014-02-12 03:53:00
6:53 PM,75.0,64.9,71,30.00,10.0,SW,3.5,-,N/A,,Clear,230,2014-02-12 04:53:00
7:53 PM,73.9,66.0,76,30.02,10.0,Calm,Calm,-,N/A,,Mostly Cloudy,0,2014-02-12 05:53:00
8:53 PM,72.0,66.9,84,30.04,10.0,Variable,3.5,-,N/A,,Clear,0,2014-02-12 06:53:00
9:53 PM,70.0,66.0,87,30.04,10.0,Calm,Calm,-,N/A,,Partly Cloudy,0,2014-02-12 07:53:00
10:53 PM,69.1,64.9,87,30.04,10.0,Calm,Calm,-,N/A,,Clear,0,2014-02-12 08:53:00
11:53 PM,68.0,64.9,90,30.03,10.0,ENE,3.5,-,N/A,,Clear,60,2014-02-12 09:53:00